Voltar ao catálogo

FENGYUN 1C DEB

AtivoPO
NORAD 30347·DEBRIS·🇨🇳 China

Lançado May 10, 1999 de Taiyuan Satellite Launch Center

Loading…

Próximas Passagens (próximas 24 horas)

TLE

AtualizadoSource: Space-Track

Época: Sep 14, 2026, 09:59 UTC

1 30347U 99025ABJ 26257.41600019  .00000052  00000-0  63863-4 0  9992
2 30347  98.3998  60.5735 0149537 347.2854  40.7228 13.92896291997988

Acompanhe FENGYUN 1C DEB em tempo real com AllMySat

Download on the App Store